Погода в Твери

Хотите узнать прогноз погоды в Твери? Тогда Вам сюда: Погода в Твери

Поиск расширенной информации на нашем сайте:

Полезная информация:

Новости сайта



02.01.2020
Опубликован Долгосрочный прогноз погоды по городам России и ближнего зарубежья на январь 2020 года.
Карты: Прогноз на январь и февраль 2020 года, Сравнение прогнозируемой аномалии приземной температуры воздуха на январь 2020 года по разным моделям.




Погода в Твери - сегодня

Время (UTC), дата Ветер
(°,м/с) 
Видим.   Явления Облачность Т
(°С)
Тd
(°С)
f(%) Тe
(°С)
Pmin
(гПа)
dP
(гПа)
Po
(мм)
O2
(г/м3)
Тmin Tmax R s Состояние
почвы
21 22.10.20 190 (Ю) 4000 м  слаб. ливневой дождь  10/10 200 м кучево-дожд. 
[Cb cap]
+7.7 +6.7 93 +9  1002.2  -2.9  738  288           
00 23.10.20 210 (ЮЗ) 10 км  слаб. ливневой дождь  10/10 200 м кучево-дожд. 
[Cb cap]
+10 +9 93 +10  1000.5  -1.4  737  285           
03 23.10.20 250 (З) 10 км  {ливн. осадки}  10/10 300 м 
[St]
+10.8 +9 89 +11  1001.8  1.2  738  285  +5.3       
06 23.10.20 250 (З) 4000 м  слаб. ливневой дождь  8/8 300 м кучево-дожд. 
[Cb calv]
+10.4 +8.4 87 +12  1003.3  1.5  739  286  +6.5      влажная 
09 23.10.20 230 (ЮЗ) 10 км  {ливн. осадки}  8/8 600 м 
[Sc]
+12.6 +8.7 77 +12  1003  -0.2  739  283           
12 23.10.20 220 (ЮЗ) 10 км  слаб. ливневой дождь  8/8 600 м кучево-дожд. 
[Cb calv]
+11.9 +8.3 79 +12  1002.2  -0.8  739  284           
15 23.10.20 230 (ЮЗ) 10 км  слаб. ливневой дождь  8/8 600 м кучево-дожд. 
[Cb calv]
+10.6 +9.2 91 +12  1001.6  -0.7  738  285         
18 23.10.20 220 (ЮЗ) 10 км  слаб. ливневой дождь  9/5 600 м кучево-дожд., средняя 
[Cb calv|Ac trans]
+9.5 +7.9 90 +10  1000.9  -0.8  738  286    +12.9     
21 23.10.20 250 (З) 10 км  {ливн. осадки}  6/0 средняя 
[Ac trans]
+9.6 +7.8 89 +11  1001.6  0.7  738  286           
00 24.10.20 240 (ЮЗ) 10 км  {ливн. осадки}  6/0 средняя 
[Ac trans]
+9 +6.8 86 +9  1002.8  1.1  739  287           
03 24.10.20 300 (СЗ) 10 км    8/0 средняя 
[Ac trans]
+8.5 +5 79 +9  1004.7  1.9  740  289  +8.5       
06 24.10.20 290 (З) 10 км    8/4 600 м средняя 
[Sc|Ac trans]
+7.2 +3.1 75 +8  1006.9  742  291  +6.8    0.3    влажная 
09 24.10.20 290 (З) 10 км    8/5 600 м средняя 
[Sc|Ac trans]
+8.3 +2 64 +8  1007.6  0.8  743  290           
12 24.10.20 240 (ЮЗ) 10 км    9/5 600 м средняя 
[Sc|Ac trans]
+8.9 +3.4 68 +10  1008.1  0.5  743  289           
15 24.10.20 тихо ()   10 км  {ливн. осадки}  8/5 600 м средняя 
[Sc|Ac trans]
+6.4 +5 91 +6  1008.4  0.1  743  292      0.0     
18 24.10.20 260 (З) 10 км  {ливн. осадки}  8/8 600 м 
[Sc]
+6.1 +4.3 88 +7  1008.9  0.5  743  292    +9.3  0.0     
21 24.10.20 тихо ()   10 км    4/0 средняя 
[Ac trans]
+3.1 +1.5 89 +3  1009.5  0.4  744  296           
00 25.10.20 тихо ()   10 км    8/0 средняя 
[Ac trans]
+1.9 +1 94 +2  1010.1  0.5  744  298           
03 25.10.20 тихо ()   10 км    6/0 средняя 
[Ac trans]
+2.2 +1.4 94 +2  1010.9  0.8  745  297  +1         
06 25.10.20 тихо ()   10 км    9/9 300 м 
[St]
+4.3 +3.5 95 +4  1012.2  1.4  746  295  +1        влажная 
09 25.10.20 230 (ЮЗ) 10 км    10/10 300 м 
[St]
+7 +4.8 86 +8  1012.9  0.8  746  292           
12 25.10.20 220 (ЮЗ) 10 км    8/8 300 м 
[St]
+7.8 +4.9 82 +9  1013.7  0.9  747  292           
15 25.10.20 тихо ()   10 км  {ливн. осадки}  9/9 300 м 
[St]
+8.4 +6.2 86 +8  1015.1  1.4  748  291      0.0     
18 25.10.20 220 (ЮЗ) 10 км  {ливн. осадки}  9/9 600 м 
[Sc]
+8.3 +6.3 87 +9  1016.4  1.3  749  292    +8.5  0.0     
21 25.10.20 тихо ()   10 км    9/9 1000 м 
[Sc]
+7.9 +5.6 85 +8  1018.4  1.9  750  293           
Время (UTC), дата Ветер
(°,м/с) 
Видим.   Явления Облачность Т
(°С)
Тd
(°С)
f(%) Тe
(°С)
Pmin
(гПа)
dP
(гПа)
Po
(мм)
O2
(г/м3)
Тmin Tmax R s Состояние
почвы

Для получения пояснительной информации подведите курсор к названию столбца.

ПОГОДА в Твери - архив

Всё, что Вы хотите узнать о погоде в Твери - удобно и подробно!

Выберите нужную дату (начиная с 1 января 2019* года) и нажмите кнопку "Найти".
Будут отображены архивные сводки погоды по пункту Тверь, начиная с указанной даты.


Отображать данные в формате CSV (для использования в таблицах Excel)


Внимание! Наш архив погоды предназначен исключительно для личного некоммерческого использования в познавательных целях. Если Вам необходимы официальные справки о состоянии погоды (для производственных, юридических, коммерческих и т.п. целей), обращайтесь в органы Росгидромета.

*Примечание: данная дата относится к архиву по метеостанциям СССР (Россия, СНГ, Балтия).
Архив по метеостанциям Зарубежной Европы и Азии (кроме Китая) хранится 10 дней, по другим регионам земного шара (Китай, Африка, Америка, Австралия, Океания) - 1 день.

Тверь - район местоположения метеостанции


Название, широта, долгота, высота метеостанции:
Тверь (город) 56.8°ш. 35.7°д. 137 м над ур. моря [Российская Федерация]

Дополнительная информация

В oтличие oт бoльшинства пoгoдных сайтoв мы публикуем пoдрoбную метеoинфoрмацию в детальнoм прoфессиoнальнoм фoрмате.

Характеристики температуры и влажнoсти вoздуха измеряются на высoте 2 м в тени вдали oт зданий и деревьев.
Скoрoсть ветра измеряется на высoте 10 м (на урoвне рoста челoвека скoрoсть ветра ниже в 1.5-2 раза). Если метеoстанция нахoдится в гoрoде или в лесу, тo скoрoсть ветра занижена на 2-4 м/с пo сравнению с oткрытым местoм. Скoрoсть ветра над акватoриями крупных рек и oзёр, а также на вершинах хoлмoв на 2-5 м/с выше, чем в oбычных услoвиях.
Атмoсфернoе давление в разных тoчках местнoсти мoжет значительнo oтличаться oт давления на метеoстанции, в зависимoсти oт услoвий рельефа (при пoдъёме на 10 м давление пoнижается примернo на 1 мм рт.ст.).